Weather History for KSGJ - November, 2012

Change the Weather History Date:

Friday, November 9, 2012

  Actual Average Record
Temperature  
Mean Temperature 56 °F -  
Max Temperature 66 °F 72 °F 84 °F (1986)
Min Temperature 46 °F 56 °F 35 °F (1976)
Degree Days  
Heating Degree Days 9    
Growing Degree Days 6 (Base 50)    
Moisture  
Dew Point 44 °F    
Average Humidity 70    
Maximum Humidity 93    
Minimum Humidity 36    
Precipitation  
Precipitation 0.00 in - - ()
Sea Level Pressure  
Sea Level Pressure 30.25 in    
Wind  
Wind Speed 6 mph (NW)    
Max Wind Speed 10 mph    
Max Gust Speed -    
Visibility 10 miles    
Events      
Averages and records for this station are not official NWS values.
T = Trace of Precipitation, MM = Missing Value Source: NWS Daily Summary

Daily Weather History Graph

Daily Weather History Graph

Search for Another Location

Airport or City:

Trip Planner

Search our weather history database for the weather conditions in past years. The results will help you decide how hot, cold, wet, or windy it might be!

Date:

Astronomy

Nov. 09, 2012 Rise Set
Actual Time 6:45 AM EST 5:32 PM EST
Civil Twilight 6:20 AM EST 5:57 PM EST
Nautical Twilight 5:52 AM EST 6:25 PM EST
Astronomical Twilight 5:23 AM EST 6:54 PM EST
Moon 2:03 AM EST (11/9) 2:27 PM EST (11/9)
Length of Visible Light 11h 36m
Length of Day
10h 46m
Waning Crescent, 23% of the Moon is Illuminated
Nov 9
Waning Crescent
Nov 13
New
Nov 20
First Quarter
Nov 28
Full
Dec 6
Last Quarter

Hourly Weather History & Observations

Time (EST) Temp. Dew Point Humidity Pressure Visibility Wind Dir Wind Speed Gust Speed Precip Events Conditions
12:58 AM 50.0 °F 45.0 °F 83% 30.19 in 10.0 mi West 6.9 mph - N/A   Clear
1:58 AM 48.0 °F 45.0 °F 89% 30.19 in 10.0 mi West 5.8 mph - N/A   Clear
2:58 AM 48.0 °F 45.0 °F 89% 30.20 in 10.0 mi West 6.9 mph - N/A   Clear
3:58 AM 46.9 °F 45.0 °F 93% 30.21 in 10.0 mi West 4.6 mph - N/A   Clear
4:58 AM 48.0 °F 45.0 °F 89% 30.22 in 10.0 mi West 6.9 mph - N/A   Clear
5:58 AM 48.0 °F 44.1 °F 86% 30.23 in 10.0 mi WNW 6.9 mph - N/A   Clear
6:58 AM 46.9 °F 44.1 °F 90% 30.26 in 10.0 mi WNW 5.8 mph - N/A   Clear
7:58 AM 48.9 °F 44.1 °F 83% 30.28 in 10.0 mi West 6.9 mph - N/A   Clear
8:58 AM 55.0 °F 46.9 °F 74% 30.29 in 10.0 mi WNW 4.6 mph - N/A   Clear
9:58 AM 61.0 °F 46.0 °F 58% 30.30 in 10.0 mi WNW 4.6 mph - N/A   Clear
10:58 AM 64.9 °F 42.1 °F 43% 30.31 in 10.0 mi North 6.9 mph - N/A   Clear
11:58 AM 66.0 °F 39.0 °F 37% 30.29 in 10.0 mi NNE 9.2 mph - N/A   Clear
12:58 PM 66.0 °F 37.9 °F 36% 30.27 in 10.0 mi NNE 8.1 mph - N/A   Clear
1:58 PM 66.0 °F 39.9 °F 38% 30.26 in 10.0 mi NE 8.1 mph - N/A   Clear
2:58 PM 66.0 °F 43.0 °F 43% 30.24 in 10.0 mi ENE 10.4 mph - N/A   Clear
3:58 PM 64.9 °F 45.0 °F 48% 30.24 in 10.0 mi East 6.9 mph - N/A   Clear
4:58 PM 64.0 °F 45.0 °F 50% 30.24 in 10.0 mi ENE 5.8 mph - N/A   Clear
5:58 PM 61.0 °F 46.9 °F 60% 30.25 in 10.0 mi Calm Calm - N/A   Clear
6:58 PM 57.0 °F 48.0 °F 72% 30.25 in 10.0 mi Calm Calm - N/A   Clear
7:58 PM 53.1 °F 46.9 °F 80% 30.26 in 10.0 mi Calm Calm - N/A   Clear
8:58 PM 50.0 °F 46.0 °F 86% 30.27 in 10.0 mi Calm Calm - N/A   Clear
9:58 PM 48.9 °F 45.0 °F 86% 30.28 in 10.0 mi Calm Calm - N/A   Clear
10:58 PM 48.0 °F 44.1 °F 86% 30.29 in 10.0 mi Calm Calm - N/A   Clear
11:58 PM 46.9 °F 43.0 °F 86% 30.28 in 10.0 mi Calm Calm - N/A   Clear